����,���ϕ���(m/s),���ϕ���,�ő�u�ԕ���(m/s),�ő啗��������,�C��(��),���x(%),10���Ԉړ��ώZ�J��(mm),1���Ԉړ��ώZ�J��(mm),���J��(mm),�݌v�J��(mm),����(���ώZ)(MJ/m2),����(���ώZ)(min),���n�C��(hPa),�C�ʋC��(hPa)
2020-01-13T00:00:00+09:00,1.3,���k��,2.9,��,4.6,94.6,0,0,0,0,3.72,61,998,1012.3
2020-01-13T00:01:00+09:00,1.2,���k��,2.6,��,4.7,94.7,0,0,0,0,0,0,998,1012.3
2020-01-13T00:02:00+09:00,1.2,���k��,2.3,���k��,4.5,94.6,0,0,0,0,0,0,998,1012.3
2020-01-13T00:03:00+09:00,1.3,���k��,2.6,���k��,4.5,94,0,0,0,0,0,0,998,1012.3
2020-01-13T00:04:00+09:00,1.4,���k��,2.6,���k��,4.4,93.9,0,0,0,0,0,0,998,1012.3
2020-01-13T00:05:00+09:00,1.5,���k��,2.6,���k��,4.3,93.5,0,0,0,0,0,0,998,1012.3
2020-01-13T00:06:00+09:00,1.6,���k��,2.6,���k��,4.2,93.1,0,0,0,0,0,0,998,1012.3
2020-01-13T00:07:00+09:00,1.6,���k��,2.6,���k��,4.2,92.7,0,0,0,0,0,0,997.9,1012.2
2020-01-13T00:08:00+09:00,1.6,���k��,2.6,���k��,4.3,93.3,0,0,0,0,0,0,997.9,1012.2
2020-01-13T00:09:00+09:00,1.6,���k��,2.6,���k��,4.4,93.5,0,0,0,0,0,0,997.9,1012.2
2020-01-13T00:10:00+09:00,1.6,���k��,2.6,���k��,4.4,93.6,0,0,0,0,0,0,997.9,1012.2
2020-01-13T00:11:00+09:00,1.5,���k��,2.6,���k��,4.4,93.6,0,0,0,0,0,0,997.9,1012.2
2020-01-13T00:12:00+09:00,1.5,���k��,2.6,���k��,4.3,93.4,0,0,0,0,0,0,997.9,1012.2
2020-01-13T00:13:00+09:00,1.4,���k��,2.2,���k��,4.5,93.5,0,0,0,0,0,0,997.9,1012.2
2020-01-13T00:14:00+09:00,1.3,���k��,1.9,��,4.5,93.9,0,0,0,0,0,0,997.9,1012.2
2020-01-13T00:15:00+09:00,1.3,���k��,1.9,��,4.4,93.8,0,0,0,0,0,0,997.9,1012.2
2020-01-13T00:16:00+09:00,1.3,���k��,1.8,���k��,4.4,93.4,0,0,0,0,0,0,997.9,1012.2
2020-01-13T00:17:00+09:00,1.3,���k��,1.8,���k��,4.3,93.4,0,0,0,0,0,0,997.9,1012.2
2020-01-13T00:18:00+09:00,1.3,��,1.8,���k��,4.2,93,0,0,0,0,0,0,998,1012.3
2020-01-13T00:19:00+09:00,1.2,��,1.8,���k��,4.3,93.4,0,0,0,0,0,0,998,1012.3
2020-01-13T00:20:00+09:00,1.2,��,1.8,���k��,4.3,94.1,0,0,0,0,0,0,998,1012.3
2020-01-13T00:21:00+09:00,1.3,��,1.8,���k��,4.4,94.4,0,0,0,0,0,0,998,1012.3
2020-01-13T00:22:00+09:00,1.3,��,1.8,���k��,4.3,94.4,0,0,0,0,0,0,998,1012.3
2020-01-13T00:23:00+09:00,1.2,��,1.8,���k��,4.2,94.1,0,0,0,0,0,0,998,1012.3
2020-01-13T00:24:00+09:00,1.2,��,1.8,���k��,4.2,94.2,0,0,0,0,0,0,998,1012.3
2020-01-13T00:25:00+09:00,1.2,��,1.9,���쐼,4.3,94.5,0,0,0,0,0,0,998.1,1012.4
2020-01-13T00:26:00+09:00,1.1,��,1.9,���쐼,4.2,94.7,0,0,0,0,0,0,998,1012.3
2020-01-13T00:27:00+09:00,1.1,��,1.9,���쐼,4.2,94.6,0,0,0,0,0,0,998.1,1012.4
2020-01-13T00:28:00+09:00,1.1,��,1.9,���쐼,4.1,94.8,0,0,0,0,0,0,998.1,1012.4
2020-01-13T00:29:00+09:00,1.1,��,1.9,���쐼,4.1,94.7,0,0,0,0,0,0,998.1,1012.4
2020-01-13T00:30:00+09:00,1.1,��,1.9,���쐼,4.1,94.8,0,0,0,0,0,0,998.1,1012.4
2020-01-13T00:31:00+09:00,1.1,��,1.9,���쐼,4.1,95.1,0,0,0,0,0,0,998.1,1012.4
2020-01-13T00:32:00+09:00,1.1,��,2.9,��,4,95,0,0,0,0,0,0,998.2,1012.5
2020-01-13T00:33:00+09:00,1.3,��,2.9,��,3.8,94.7,0,0,0,0,0,0,998.2,1012.6
2020-01-13T00:34:00+09:00,1.4,��,2.9,��,3.6,94.1,0,0,0,0,0,0,998.1,1012.5
2020-01-13T00:35:00+09:00,1.5,��,3,��,3.6,94,0,0,0,0,0,0,998.1,1012.5
2020-01-13T00:36:00+09:00,1.7,��,3,��,3.6,94.4,0,0,0,0,0,0,998.1,1012.5
2020-01-13T00:37:00+09:00,1.8,��,3,��,3.7,94.8,0,0,0,0,0,0,998.2,1012.6
2020-01-13T00:38:00+09:00,1.8,��,3,��,3.7,95.3,0,0,0,0,0,0,998.2,1012.6
2020-01-13T00:39:00+09:00,1.9,��,3,��,3.8,95.4,0,0,0,0,0,0,998.2,1012.6
2020-01-13T00:40:00+09:00,2,��,3,��,3.8,95.5,0,0,0,0,0,0,998.2,1012.6
2020-01-13T00:41:00+09:00,1.9,��,3,��,3.6,95.2,0,0,0,0,0,0,998.2,1012.6
2020-01-13T00:42:00+09:00,1.9,��,3,��,3.7,95.2,0,0,0,0,0,0,998.1,1012.5
2020-01-13T00:43:00+09:00,1.7,��,3,��,3.7,95.1,0,0,0,0,0,0,998.1,1012.5
2020-01-13T00:44:00+09:00,1.5,���k��,3,��,3.6,95.2,0,0,0,0,0,0,998.1,1012.5
2020-01-13T00:45:00+09:00,1.3,���k��,2.9,���k��,3.7,95.1,0,0,0,0,0,0,998.2,1012.6
2020-01-13T00:46:00+09:00,1.2,���k��,2.9,���k��,3.6,95,0,0,0,0,0,0,998.2,1012.6
2020-01-13T00:47:00+09:00,1.2,���k��,2.9,���k��,3.6,94.9,0,0,0,0,0,0,998.2,1012.6
2020-01-13T00:48:00+09:00,1.3,���k��,3,��,3.5,94.6,0,0,0,0,0,0,998.3,1012.7
2020-01-13T00:49:00+09:00,1.4,��,3.3,���k��,3.4,94.2,0,0,0,0,0,0,998.2,1012.6
2020-01-13T00:50:00+09:00,1.4,���k��,3.3,���k��,3.5,94.1,0,0,0,0,0,0,998.3,1012.7
2020-01-13T00:51:00+09:00,1.4,���k��,3.3,���k��,3.6,94.7,0,0,0,0,0,0,998.3,1012.7
2020-01-13T00:52:00+09:00,1.3,���k��,3.3,���k��,3.7,94.8,0,0,0,0,0,0,998.4,1012.8
2020-01-13T00:53:00+09:00,1.3,���k��,3.3,���k��,3.8,95.2,0,0,0,0,0,0,998.4,1012.8
2020-01-13T00:54:00+09:00,1.3,���k��,3.3,���k��,3.9,95.3,0,0,0,0,0,0,998.4,1012.8
2020-01-13T00:55:00+09:00,1.4,�k��,3.3,���k��,3.9,95.4,0,0,0,0,0,0,998.5,1012.9
2020-01-13T00:56:00+09:00,1.3,�k��,3.3,���k��,3.9,95.3,0,0,0,0,0,0,998.5,1012.9
2020-01-13T00:57:00+09:00,1.2,�k�k��,3.3,���k��,3.9,95.2,0,0,0,0,0,0,998.5,1012.9
2020-01-13T00:58:00+09:00,1,�k�k��,3.3,���k��,3.9,95.1,0,0,0,0,0,0,998.4,1012.8
2020-01-13T00:59:00+09:00,0.8,�k,3.1,��,3.9,95,0,0,0,0,0,0,998.3,1012.7
2020-01-13T01:00:00+09:00,0.7,�k,1.6,�k�k��,4,95.2,0,0,0,0,0,0,998.3,1012.6
2020-01-13T01:01:00+09:00,0.7,�k�k��,1.6,�k�k��,4,95.3,0,0,0,0,0,0,998.4,1012.7
2020-01-13T01:02:00+09:00,0.7,�k��,1.6,�k�k��,3.9,95.2,0,0,0,0,0,0,998.4,1012.8
2020-01-13T01:03:00+09:00,0.6,�k��,1.6,�k�k��,3.9,95.1,0,0,0,0,0,0,998.4,1012.8
2020-01-13T01:04:00+09:00,0.5,�k��,1.6,�k�k��,4,95.2,0,0,0,0,0,0,998.4,1012.7
2020-01-13T01:05:00+09:00,0.4,���k��,1.4,���k��,4,95.3,0,0,0,0,0,0,998.4,1012.7
2020-01-13T01:06:00+09:00,0.4,���k��,1.4,���k��,4,95.3,0,0,0,0,0,0,998.5,1012.8
2020-01-13T01:07:00+09:00,0.4,���k��,1.4,���k��,4,95.4,0,0,0,0,0,0,998.5,1012.8
2020-01-13T01:08:00+09:00,0.4,���k��,1.4,���k��,3.9,95.4,0,0,0,0,0,0,998.5,1012.9
2020-01-13T01:09:00+09:00,0.4,��,1.4,���k��,3.9,95.2,0,0,0,0,0,0,998.5,1012.9
2020-01-13T01:10:00+09:00,0.3,���쓌,1.3,���k��,4,95.3,0,0,0,0,0,0,998.5,1012.8
2020-01-13T01:11:00+09:00,0.2,�É�,1.2,�쐼,4.1,95.7,0,0,0,0,0,0,998.5,1012.8
2020-01-13T01:12:00+09:00,0.2,�É�,1.2,�쐼,4,95.7,0,0,0,0,0,0,998.5,1012.8
2020-01-13T01:13:00+09:00,0.2,�É�,1.2,�쐼,4,95.6,0,0,0,0,0,0,998.5,1012.8
2020-01-13T01:14:00+09:00,0.2,�É�,1.2,�쐼,4,95.6,0,0,0,0,0,0,998.5,1012.8
2020-01-13T01:15:00+09:00,0.2,�É�,1.2,�쐼,3.9,95.5,0,0,0,0,0,0,998.5,1012.9
2020-01-13T01:16:00+09:00,0.3,�쐼,1.2,�쐼,3.9,95.5,0,0,0,0,0,0,998.5,1012.9
2020-01-13T01:17:00+09:00,0.3,�쐼,1.2,�쐼,3.9,95.4,0,0,0,0,0,0,998.5,1012.9
2020-01-13T01:18:00+09:00,0.3,�쐼,1.2,�쐼,3.9,95.7,0,0,0,0,0,0,998.5,1012.9
2020-01-13T01:19:00+09:00,0.2,�É�,0.9,��쐼,3.8,95.6,0,0,0,0,0,0,998.5,1012.9
2020-01-13T01:20:00+09:00,0.2,�É�,0.9,��쐼,3.7,95.4,0,0,0,0,0,0,998.6,1013
2020-01-13T01:21:00+09:00,0.3,���쐼,1.2,��,4,95.6,0,0,0,0,0,0,998.6,1012.9
2020-01-13T01:22:00+09:00,0.3,���쐼,1.3,��,3.9,95.8,0,0,0,0,0,0,998.6,1013
2020-01-13T01:23:00+09:00,0.4,��,1.3,��,3.9,95.8,0,0,0,0,0,0,998.5,1012.9
2020-01-13T01:24:00+09:00,0.4,��,1.3,��,3.9,95.7,0,0,0,0,0,0,998.6,1013
2020-01-13T01:25:00+09:00,0.4,��,1.3,��,3.9,95.7,0,0,0,0,0,0,998.5,1012.9
2020-01-13T01:26:00+09:00,0.4,��,1.3,��,4,95.8,0,0,0,0,0,0,998.6,1012.9
2020-01-13T01:27:00+09:00,0.4,��,1.3,��,4.1,95.9,0,0,0,0,0,0,998.6,1012.9
2020-01-13T01:28:00+09:00,0.4,���k��,1.3,��,4,96,0,0,0,0,0,0,998.6,1012.9
2020-01-13T01:29:00+09:00,0.5,���k��,1.3,��,4.1,95.8,0,0,0,0,0,0,998.6,1012.9
2020-01-13T01:30:00+09:00,0.6,���k��,1.8,���k��,4.1,96,0,0,0,0,0,0,998.6,1012.9
2020-01-13T01:31:00+09:00,0.6,���k��,1.8,���k��,4,95.8,0,0,0,0,0,0,998.6,1012.9
2020-01-13T01:32:00+09:00,0.7,���k��,1.8,���k��,3.8,95.6,0,0,0,0,0,0,998.6,1013
2020-01-13T01:33:00+09:00,0.7,���k��,1.8,���k��,3.6,95.4,0,0,0,0,0,0,998.6,1013
2020-01-13T01:34:00+09:00,0.6,��,1.8,���k��,3.7,95.3,0,0,0,0,0,0,998.6,1013
2020-01-13T01:35:00+09:00,0.6,��,1.8,���k��,3.9,95.7,0,0,0,0,0,0,998.7,1013.1
2020-01-13T01:36:00+09:00,0.6,��,1.8,���k��,4,95.9,0,0,0,0,0,0,998.7,1013.1
2020-01-13T01:37:00+09:00,0.7,��,1.8,���k��,3.9,95.9,0,0,0,0,0,0,998.7,1013.1
2020-01-13T01:38:00+09:00,0.7,��,1.8,���k��,4,95.9,0,0,0,0,0,0,998.6,1012.9
2020-01-13T01:39:00+09:00,0.8,���쐼,1.9,���쐼,3.9,96,0,0,0,0,0,0,998.6,1013
2020-01-13T01:40:00+09:00,0.9,���쐼,2.1,���쐼,3.8,95.8,0,0,0,0,0,0,998.7,1013.1
2020-01-13T01:41:00+09:00,0.9,���쐼,2.1,���쐼,3.7,95.6,0,0,0,0,0,0,998.6,1013
2020-01-13T01:42:00+09:00,0.8,���쐼,2.1,���쐼,3.6,95.4,0,0,0,0,0,0,998.6,1013
2020-01-13T01:43:00+09:00,0.8,���쐼,2.1,���쐼,3.6,95.5,0,0,0,0,0,0,998.6,1013
2020-01-13T01:44:00+09:00,0.9,���쐼,2.1,���쐼,3.7,95.5,0,0,0,0,0,0,998.6,1013
2020-01-13T01:45:00+09:00,1,���쐼,2.1,���쐼,3.7,95.7,0,0,0,0,0,0,998.6,1013
2020-01-13T01:46:00+09:00,1.1,���쐼,2.1,���쐼,3.7,95.7,0,0,0,0,0,0,998.6,1013
2020-01-13T01:47:00+09:00,1.2,���쐼,2.8,��,3.5,95.7,0,0,0,0,0,0,998.6,1013
2020-01-13T01:48:00+09:00,1.3,���쐼,2.8,��,3.3,95.3,0,0,0,0,0,0,998.6,1013
2020-01-13T01:49:00+09:00,1.3,���쐼,3,��,3.1,94.9,0,0,0,0,0,0,998.6,1013
2020-01-13T01:50:00+09:00,1.3,���쐼,3,��,3.1,94.8,0,0,0,0,0,0,998.7,1013.1
2020-01-13T01:51:00+09:00,1.4,���쐼,3,��,3.2,95.2,0,0,0,0,0,0,998.7,1013.1
2020-01-13T01:52:00+09:00,1.5,���쐼,3,��,3.2,95.4,0,0,0,0,0,0,998.7,1013.1
2020-01-13T01:53:00+09:00,1.7,���쐼,3.4,��,3.2,95.5,0,0,0,0,0,0,998.8,1013.2
2020-01-13T01:54:00+09:00,1.8,��,3.4,��,3.2,95.6,0,0,0,0,0,0,998.7,1013.1
2020-01-13T01:55:00+09:00,1.9,��,3.4,��,3.1,95.5,0,0,0,0,0,0,998.7,1013.1
2020-01-13T01:56:00+09:00,2,��,3.4,��,3,95.3,0,0,0,0,0,0,998.8,1013.2
2020-01-13T01:57:00+09:00,1.9,��,3.4,��,3.3,95.6,0,0,0,0,0,0,998.8,1013.2
2020-01-13T01:58:00+09:00,1.8,��,3.4,��,3.2,95.7,0,0,0,0,0,0,998.7,1013.1
2020-01-13T01:59:00+09:00,1.8,��,3.4,��,3.3,95.7,0,0,0,0,0,0,998.8,1013.2
2020-01-13T02:00:00+09:00,1.8,��,3.4,��,3.4,95.9,0,0,0,0,0,0,998.8,1013.2
2020-01-13T02:01:00+09:00,1.9,��,3.4,��,3.3,95.8,0,0,0,0,0,0,998.9,1013.3
2020-01-13T02:02:00+09:00,1.8,��,3.4,��,3.2,95.7,0,0,0,0,0,0,998.8,1013.2
2020-01-13T02:03:00+09:00,1.8,��,3,��,3.1,95.6,0,0,0,0,0,0,998.9,1013.3
2020-01-13T02:04:00+09:00,1.9,��,3.4,��,3.1,95.5,0,0,0,0,0,0,998.9,1013.3
2020-01-13T02:05:00+09:00,1.9,��,3.4,��,3,95.4,0,0,0,0,0,0,998.9,1013.3
2020-01-13T02:06:00+09:00,1.9,��,3.4,��,2.9,95.4,0,0,0,0,0,0,998.8,1013.2
2020-01-13T02:07:00+09:00,2,��,3.4,��,2.9,95.3,0,0,0,0,0,0,998.8,1013.2
2020-01-13T02:08:00+09:00,2,��,3.4,��,2.8,95.4,0,0,0,0,0,0,998.8,1013.2
2020-01-13T02:09:00+09:00,1.9,��,3.4,��,2.8,95.4,0,0,0,0,0,0,998.8,1013.2
2020-01-13T02:10:00+09:00,1.8,��,3.4,��,2.9,95.6,0,0,0,0,0,0,998.8,1013.2
2020-01-13T02:11:00+09:00,1.8,��,3.4,��,2.9,95.6,0,0,0,0,0,0,998.8,1013.2
2020-01-13T02:12:00+09:00,1.8,��,3.4,��,2.9,95.6,0,0,0,0,0,0,998.8,1013.2
2020-01-13T02:13:00+09:00,1.9,��,3.4,��,2.7,95.6,0,0,0,0,0,0,998.9,1013.3
2020-01-13T02:14:00+09:00,1.8,��,3.1,��,2.7,95.4,0,0,0,0,0,0,998.9,1013.3
2020-01-13T02:15:00+09:00,1.7,��,3.1,��,2.6,95.3,0,0,0,0,0,0,998.8,1013.2
2020-01-13T02:16:00+09:00,1.6,��,3.1,��,2.8,95.4,0,0,0,0,0,0,998.9,1013.3
2020-01-13T02:17:00+09:00,1.6,��,3.1,��,2.8,95.8,0,0,0,0,0,0,998.9,1013.3
2020-01-13T02:18:00+09:00,1.7,��,3.1,��,2.7,95.7,0,0,0,0,0,0,999,1013.4
2020-01-13T02:19:00+09:00,1.7,��,3.1,��,2.7,95.6,0,0,0,0,0,0,999,1013.4
2020-01-13T02:20:00+09:00,1.8,��,3.1,��,2.7,95.6,0,0,0,0,0,0,999,1013.4
2020-01-13T02:21:00+09:00,1.8,��,3.1,��,2.7,95.7,0,0,0,0,0,0,999,1013.4
2020-01-13T02:22:00+09:00,1.6,��,3.1,��,2.6,95.6,0,0,0,0,0,0,999,1013.4
2020-01-13T02:23:00+09:00,1.5,��,3.1,��,2.5,95.5,0,0,0,0,0,0,999.1,1013.5
2020-01-13T02:24:00+09:00,1.2,��,2.9,��,2.8,95.7,0,0,0,0,0,0,999.1,1013.5
2020-01-13T02:25:00+09:00,1.2,��,2.9,��,2.8,95.9,0,0,0,0,0,0,999,1013.4
2020-01-13T02:26:00+09:00,1.3,��,2.9,��,2.8,95.9,0,0,0,0,0,0,999,1013.4
2020-01-13T02:27:00+09:00,1.2,��,2.9,��,2.7,95.9,0,0,0,0,0,0,999.1,1013.5
2020-01-13T02:28:00+09:00,1,��,2.9,��,2.8,95.7,0,0,0,0,0,0,999,1013.4
2020-01-13T02:29:00+09:00,0.8,��,2.5,��,2.6,95.8,0,0,0,0,0,0,999.1,1013.5
2020-01-13T02:30:00+09:00,0.8,��,2,���k��,2.5,95.5,0,0,0,0,0,0,999.1,1013.5
2020-01-13T02:31:00+09:00,0.7,��,1.9,���k��,2.7,95.6,0,0,0,0,0,0,999.1,1013.5
2020-01-13T02:32:00+09:00,0.8,��,1.9,���k��,2.6,95.8,0,0,0,0,0,0,999.1,1013.5
2020-01-13T02:33:00+09:00,1,��,2.3,�쐼,2.4,95.5,0,0,0,0,0,0,999.1,1013.5
2020-01-13T02:34:00+09:00,1,��,2.3,�쐼,2.3,95.4,0,0,0,0,0,0,999,1013.4
2020-01-13T02:35:00+09:00,1,��,2.3,�쐼,2.4,95.4,0,0,0,0,0,0,998.9,1013.3
2020-01-13T02:36:00+09:00,1,��,2.3,�쐼,2.4,95.6,0,0,0,0,0,0,998.9,1013.3
2020-01-13T02:37:00+09:00,1,��,2.3,�쐼,2.4,95.7,0,0,0,0,0,0,998.9,1013.3
2020-01-13T02:38:00+09:00,1,���쐼,2.3,�쐼,2.6,95.8,0,0,0,0,0,0,999,1013.4
2020-01-13T02:39:00+09:00,1.1,���쐼,2.3,�쐼,2.7,96,0,0,0,0,0,0,999,1013.4
2020-01-13T02:40:00+09:00,1.1,���쐼,2.3,�쐼,2.6,96,0,0,0,0,0,0,999,1013.4
2020-01-13T02:41:00+09:00,1,���쐼,2.3,�쐼,2.7,95.9,0,0,0,0,0,0,999.1,1013.5
2020-01-13T02:42:00+09:00,1,���쐼,2.3,�쐼,2.6,95.9,0,0,0,0,0,0,999.1,1013.5
2020-01-13T02:43:00+09:00,1,���쐼,2.3,���k��,2.6,95.9,0,0,0,0,0,0,999.1,1013.5
2020-01-13T02:44:00+09:00,1.1,���쐼,2.3,���k��,2.6,95.8,0,0,0,0,0,0,999.1,1013.5
2020-01-13T02:45:00+09:00,1.1,��,2.3,���k��,2.5,95.7,0,0,0,0,0,0,999.1,1013.5
2020-01-13T02:46:00+09:00,1.1,��,2.3,���k��,2.5,95.7,0,0,0,0,0,0,999,1013.4
2020-01-13T02:47:00+09:00,1.2,��,2.3,���k��,2.4,95.7,0,0,0,0,0,0,999.1,1013.5
2020-01-13T02:48:00+09:00,1.3,��,2.3,���k��,2.5,95.7,0,0,0,0,0,0,999.1,1013.5
2020-01-13T02:49:00+09:00,1.3,���k��,2.3,���k��,2.5,95.8,0,0,0,0,0,0,999.1,1013.5
2020-01-13T02:50:00+09:00,1.3,���k��,2.3,���k��,2.4,95.7,0,0,0,0,0,0,999.1,1013.5
2020-01-13T02:51:00+09:00,1.5,���k��,2.3,���k��,2.2,95.5,0,0,0,0,0,0,999.1,1013.6
2020-01-13T02:52:00+09:00,1.5,���k��,2.3,���k��,2.3,95.4,0,0,0,0,0,0,999.1,1013.5
2020-01-13T02:53:00+09:00,1.4,���k��,2.2,��,2.3,95.6,0,0,0,0,0,0,999.1,1013.5
2020-01-13T02:54:00+09:00,1.3,���k��,2.2,��,2.3,95.6,0,0,0,0,0,0,999,1013.4
2020-01-13T02:55:00+09:00,1.3,���k��,2.2,��,2.4,95.7,0,0,0,0,0,0,999,1013.4
2020-01-13T02:56:00+09:00,1.3,��,2.2,��,2.2,95.7,0,0,0,0,0,0,999,1013.4
2020-01-13T02:57:00+09:00,1.3,��,2.2,��,2,95.3,0,0,0,0,0,0,999,1013.5
2020-01-13T02:58:00+09:00,1.3,��,2.2,��,1.9,94.9,0,0,0,0,0,0,999,1013.5
2020-01-13T02:59:00+09:00,1.3,��,2.2,��,2,95.1,0,0,0,0,0,0,999.1,1013.6
2020-01-13T03:00:00+09:00,1.4,��,3,��,2.2,95.5,0,0,0,0,0,0,999.1,1013.6
2020-01-13T03:01:00+09:00,1.4,��,3,��,2,95.4,0,0,0,0,0,0,999.1,1013.6
2020-01-13T03:02:00+09:00,1.4,��,3,��,1.8,95.2,0,0,0,0,0,0,999,1013.5
2020-01-13T03:03:00+09:00,1.4,��,3,��,1.8,94.9,0,0,0,0,0,0,999.1,1013.6
2020-01-13T03:04:00+09:00,1.4,��,3,��,1.8,94.9,0,0,0,0,0,0,999.1,1013.6
2020-01-13T03:05:00+09:00,1.4,��,3,��,1.7,95.1,0,0,0,0,0,0,999.1,1013.6
2020-01-13T03:06:00+09:00,1.4,��,3.4,��,1.8,95.2,0,0,0,0,0,0,999.2,1013.7
2020-01-13T03:07:00+09:00,1.6,��,3.4,��,1.8,95.2,0,0,0,0,0,0,999.2,1013.7
2020-01-13T03:08:00+09:00,1.6,��,3.4,��,2,95.3,0,0,0,0,0,0,999,1013.5
2020-01-13T03:09:00+09:00,1.5,��,3.4,��,2,95.5,0,0,0,0,0,0,999,1013.5
2020-01-13T03:10:00+09:00,1.3,��,3.4,��,2.1,95.4,0,0,0,0,0,0,999.1,1013.6
2020-01-13T03:11:00+09:00,1.2,��,3.4,��,1.8,95.4,0,0,0,0,0,0,999.2,1013.7
2020-01-13T03:12:00+09:00,1.3,��,3.4,��,1.8,94.9,0,0,0,0,0,0,999.1,1013.6
2020-01-13T03:13:00+09:00,1.3,��,3.4,��,1.9,95,0,0,0,0,0,0,999.1,1013.6
2020-01-13T03:14:00+09:00,1.4,��,3.4,��,2,95.2,0,0,0,0,0,0,999.1,1013.6
2020-01-13T03:15:00+09:00,1.5,��,3.4,��,2,95.2,0,0,0,0,0,0,999.2,1013.7
2020-01-13T03:16:00+09:00,1.4,��,3.4,��,1.9,95.1,0,0,0,0,0,0,999.1,1013.6
2020-01-13T03:17:00+09:00,1.1,���k��,2.8,���쐼,1.8,95,0,0,0,0,0,0,999.1,1013.6
2020-01-13T03:18:00+09:00,1,��,2.8,���쐼,1.9,94.7,0,0,0,0,0,0,999.1,1013.6
2020-01-13T03:19:00+09:00,1,��,2.8,���쐼,2,95,0,0,0,0,0,0,999.1,1013.6
2020-01-13T03:20:00+09:00,1,��,2.8,���쐼,1.7,94.5,0,0,0,0,0,0,999.1,1013.6
2020-01-13T03:21:00+09:00,1,��,2.5,��,1.7,94.2,0,0,0,0,0,0,999.2,1013.7
2020-01-13T03:22:00+09:00,1,��,2.5,��,1.7,94.2,0,0,0,0,0,0,999.3,1013.8
2020-01-13T03:23:00+09:00,0.9,��,1.9,���k��,2,94.7,0,0,0,0,0,0,999.2,1013.7
2020-01-13T03:24:00+09:00,0.8,���k��,1.7,�쐼,2,95.1,0,0,0,0,0,0,999.2,1013.7
2020-01-13T03:25:00+09:00,0.7,���k��,1.7,�쐼,2,95.1,0,0,0,0,0,0,999.2,1013.7
2020-01-13T03:26:00+09:00,0.7,���k��,1.7,�쐼,2.1,95.2,0,0,0,0,0,0,999.2,1013.7
2020-01-13T03:27:00+09:00,0.7,���k��,1.7,�쐼,2,95.2,0,0,0,0,0,0,999.2,1013.7
2020-01-13T03:28:00+09:00,0.7,���k��,1.7,�쐼,2,94.9,0,0,0,0,0,0,999.2,1013.7
2020-01-13T03:29:00+09:00,0.8,���k��,2,��,2.1,95.2,0,0,0,0,0,0,999.2,1013.7
2020-01-13T03:30:00+09:00,0.8,���k��,2,��,2.1,95.1,0,0,0,0,0,0,999.2,1013.7
2020-01-13T03:31:00+09:00,0.8,���k��,2,��,2,95.2,0,0,0,0,0,0,999.2,1013.7
2020-01-13T03:32:00+09:00,0.8,���k��,2,��,2.1,95,0,0,0,0,0,0,999.1,1013.6
2020-01-13T03:33:00+09:00,0.7,���k��,2,��,2.1,95.3,0,0,0,0,0,0,999.1,1013.6
2020-01-13T03:34:00+09:00,0.7,���k��,2,��,2.1,95.3,0,0,0,0,0,0,999.1,1013.6
2020-01-13T03:35:00+09:00,0.7,���k��,2,��,1.9,95.1,0,0,0,0,0,0,999.1,1013.6
2020-01-13T03:36:00+09:00,0.8,���k��,2,��,2.1,95,0,0,0,0,0,0,999.1,1013.6
2020-01-13T03:37:00+09:00,0.9,���k��,2,��,2.1,95.4,0,0,0,0,0,0,999.1,1013.6
2020-01-13T03:38:00+09:00,0.9,���k��,2,��,2.2,95.5,0,0,0,0,0,0,999.1,1013.6
2020-01-13T03:39:00+09:00,0.8,�k��,1.9,�k��,2,95.4,0,0,0,0,0,0,999,1013.5
2020-01-13T03:40:00+09:00,0.8,�k��,1.9,�k��,2,95.3,0,0,0,0,0,0,999,1013.5
2020-01-13T03:41:00+09:00,0.7,�k��,1.9,�k��,1.9,95.2,0,0,0,0,0,0,999,1013.5
2020-01-13T03:42:00+09:00,0.7,�k��,1.9,�k��,2,95.1,0,0,0,0,0,0,999,1013.5
2020-01-13T03:43:00+09:00,0.7,�k��,1.9,�k��,2.1,95.4,0,0,0,0,0,0,999,1013.5
2020-01-13T03:44:00+09:00,0.6,�k�k��,1.9,�k��,2.2,95.6,0,0,0,0,0,0,999.1,1013.6
2020-01-13T03:45:00+09:00,0.6,�k�k��,1.9,�k��,2,95.6,0,0,0,0,0,0,999.1,1013.6
2020-01-13T03:46:00+09:00,0.6,�k�k��,1.9,�k��,2.1,95.4,0,0,0,0,0,0,999.1,1013.6
2020-01-13T03:47:00+09:00,0.5,�k�k��,1.6,�k,2.2,95.6,0,0,0,0,0,0,999.1,1013.6
2020-01-13T03:48:00+09:00,0.4,�k�k��,1.6,�k,2.3,95.6,0,0,0,0,0,0,999.1,1013.5
2020-01-13T03:49:00+09:00,0.5,�k�k��,1.6,�k,2.1,95.6,0,0,0,0,0,0,999,1013.5
2020-01-13T03:50:00+09:00,0.6,�k��,1.6,�k,2,95.5,0,0,0,0,0,0,999,1013.5
2020-01-13T03:51:00+09:00,0.6,�k��,1.6,�k,2.1,95.4,0,0,0,0,0,0,999,1013.5
2020-01-13T03:52:00+09:00,0.6,���k��,1.6,�k,2.4,95.8,0,0,0,0,0,0,999,1013.4
2020-01-13T03:53:00+09:00,0.6,���k��,1.6,�k,2.2,95.9,0,0,0,0,0,0,999.1,1013.6
2020-01-13T03:54:00+09:00,0.5,��,1.6,�k,1.9,95.5,0,0,0,0,0,0,999,1013.5
2020-01-13T03:55:00+09:00,0.6,��,1.6,�k,1.8,95,0,0,0,0,0,0,999,1013.5
2020-01-13T03:56:00+09:00,0.6,��,1.6,��쐼,1.9,95.3,0,0,0,0,0,0,999.1,1013.6
2020-01-13T03:57:00+09:00,0.5,���쐼,1.6,��쐼,1.7,95.4,0,0,0,0,0,0,999.1,1013.6
2020-01-13T03:58:00+09:00,0.5,���쐼,1.6,��쐼,1.7,95,0,0,0,0,0,0,999.1,1013.6
2020-01-13T03:59:00+09:00,0.4,��,1.6,��쐼,1.8,95.3,0,0,0,0,0,0,999,1013.5
2020-01-13T04:00:00+09:00,0.5,��,2,��,1.8,95.5,0,0,0,0,0,0,999,1013.5
2020-01-13T04:01:00+09:00,0.6,���k��,2,��,1.8,95.5,0,0,0,0,0,0,999,1013.5
2020-01-13T04:02:00+09:00,0.7,���k��,2.2,��,1.8,95.6,0,0,0,0,0,0,999.1,1013.6
2020-01-13T04:03:00+09:00,0.8,���k��,2.3,��,1.6,95.5,0,0,0,0,0,0,999,1013.5
2020-01-13T04:04:00+09:00,0.9,���k��,2.3,��,1.7,95.4,0,0,0,0,0,0,999,1013.5
2020-01-13T04:05:00+09:00,0.9,���k��,2.3,��,1.6,95.5,0,0,0,0,0,0,999,1013.5
2020-01-13T04:06:00+09:00,1,���k��,2.3,��,1.7,95.5,0,0,0,0,0,0,999.1,1013.6
2020-01-13T04:07:00+09:00,1.1,���k��,2.3,��,1.6,95.5,0,0,0,0,0,0,999.1,1013.6
2020-01-13T04:08:00+09:00,1.1,�k��,2.3,��,1.5,95.5,0,0,0,0,0,0,999.1,1013.6
2020-01-13T04:09:00+09:00,1.1,���k��,2.3,��,1.6,95.4,0,0,0,0,0,0,999.2,1013.7
2020-01-13T04:10:00+09:00,1.1,���k��,2.3,��,1.5,95.6,0,0,0,0,0,0,999.3,1013.8
2020-01-13T04:11:00+09:00,1,���k��,2.3,��,1.5,95.4,0,0,0,0,0,0,999.3,1013.8
2020-01-13T04:12:00+09:00,0.9,�k��,2.3,��,1.4,95.4,0,0,0,0,0,0,999.2,1013.7
2020-01-13T04:13:00+09:00,0.9,�k��,1.8,�k��,1.3,95.3,0,0,0,0,0,0,999.1,1013.6
2020-01-13T04:14:00+09:00,0.9,�k��,1.8,�k��,1.3,95.3,0,0,0,0,0,0,999.2,1013.7
2020-01-13T04:15:00+09:00,0.8,�k��,1.8,�k��,1.4,95.4,0,0,0,0,0,0,999.2,1013.7
2020-01-13T04:16:00+09:00,0.7,�k�k��,1.7,�k��,1.4,95.6,0,0,0,0,0,0,999.2,1013.7
2020-01-13T04:17:00+09:00,0.7,�k��,1.4,���k��,1.4,95.5,0,0,0,0,0,0,999.2,1013.7
2020-01-13T04:18:00+09:00,0.7,�k��,1.4,���k��,1.4,95.5,0,0,0,0,0,0,999.2,1013.7
2020-01-13T04:19:00+09:00,0.7,�k��,1.4,���k��,1.2,95.5,0,0,0,0,0,0,999.2,1013.7
2020-01-13T04:20:00+09:00,0.6,�k��,1.4,���k��,1.2,95.3,0,0,0,0,0,0,999.3,1013.8
2020-01-13T04:21:00+09:00,0.6,�k��,1.2,��,1.3,95.4,0,0,0,0,0,0,999.3,1013.8
2020-01-13T04:22:00+09:00,0.6,���k��,1.2,��,1.3,95.5,0,0,0,0,0,0,999.3,1013.8
2020-01-13T04:23:00+09:00,0.6,���k��,1.2,��,1.3,95.6,0,0,0,0,0,0,999.2,1013.7
2020-01-13T04:24:00+09:00,0.5,���k��,1.2,��,1.3,95.5,0,0,0,0,0,0,999.2,1013.7
2020-01-13T04:25:00+09:00,0.5,���k��,1.2,��,1.3,95.5,0,0,0,0,0,0,999.3,1013.8
2020-01-13T04:26:00+09:00,0.5,��,1.2,��,1.2,95.5,0,0,0,0,0,0,999.3,1013.8
2020-01-13T04:27:00+09:00,0.5,���k��,1.2,���쐼,1.2,95.5,0,0,0,0,0,0,999.3,1013.8
2020-01-13T04:28:00+09:00,0.5,���k��,1.2,���쐼,1.3,95.5,0,0,0,0,0,0,999.3,1013.8
2020-01-13T04:29:00+09:00,0.6,���k��,1.9,���k��,1.4,95.6,0,0,0,0,0,0,999.4,1013.9
2020-01-13T04:30:00+09:00,0.8,���k��,2.7,���k��,1.6,95.7,0,0,0,0,0,0,999.3,1013.8
2020-01-13T04:31:00+09:00,0.9,���k��,2.7,���k��,1.4,95.7,0,0,0,0,0,0,999.4,1013.9
2020-01-13T04:32:00+09:00,0.9,���k��,2.7,���k��,1.2,95.4,0,0,0,0,0,0,999.3,1013.8
2020-01-13T04:33:00+09:00,1,�k��,2.7,���k��,1.1,95.1,0,0,0,0,0,0,999.3,1013.8
2020-01-13T04:34:00+09:00,1,�k��,2.7,���k��,1.2,95,0,0,0,0,0,0,999.3,1013.8
2020-01-13T04:35:00+09:00,1,�k��,2.7,���k��,1.3,95.3,0,0,0,0,0,0,999.3,1013.8
2020-01-13T04:36:00+09:00,1.1,�k�k��,2.7,���k��,1.3,95.4,0,0,0,0,0,0,999.3,1013.8
2020-01-13T04:37:00+09:00,1.1,�k�k��,2.7,���k��,1.2,95.2,0,0,0,0,0,0,999.2,1013.7
2020-01-13T04:38:00+09:00,1.1,�k�k��,2.7,���k��,1.3,95.1,0,0,0,0,0,0,999.3,1013.8
2020-01-13T04:39:00+09:00,1,�k,2.7,���k��,1.2,95.2,0,0,0,0,0,0,999.2,1013.7
2020-01-13T04:40:00+09:00,0.8,�k,2.7,���k��,1.2,95,0,0,0,0,0,0,999.3,1013.8
2020-01-13T04:41:00+09:00,0.6,�k,2,��,1.2,94.9,0,0,0,0,0,0,999.3,1013.8
2020-01-13T04:42:00+09:00,0.6,�k,2,��,1,94.9,0,0,0,0,0,0,999.4,1013.9
2020-01-13T04:43:00+09:00,0.6,�k�k��,1.6,���k��,1,94.4,0,0,0,0,0,0,999.4,1013.9
2020-01-13T04:44:00+09:00,0.5,�k��,1.6,���k��,1.1,94.7,0,0,0,0,0,0,999.4,1013.9
2020-01-13T04:45:00+09:00,0.5,�k,1.4,���k��,1.1,94.8,0,0,0,0,0,0,999.4,1013.9
2020-01-13T04:46:00+09:00,0.5,�k,2.7,��,1.3,95.1,0,0,0,0,0,0,999.5,1014
2020-01-13T04:47:00+09:00,0.7,�k��,3.4,���k��,1.2,95.3,0,0,0,0,0,0,999.6,1014.1
2020-01-13T04:48:00+09:00,0.8,���k��,3.4,���k��,1.1,95,0,0,0,0,0,0,999.6,1014.1
2020-01-13T04:49:00+09:00,0.9,��,3.4,���k��,1.2,94.9,0,0,0,0,0,0,999.6,1014.1
2020-01-13T04:50:00+09:00,0.9,���쐼,3.4,���k��,1.1,94.9,0,0,0,0,0,0,999.6,1014.1
2020-01-13T04:51:00+09:00,1,�쐼,3.4,���k��,1.4,95.3,0,0,0,0,0,0,999.7,1014.2
2020-01-13T04:52:00+09:00,1.2,���쐼,3.4,���k��,1.2,95.5,0,0,0,0,0,0,999.7,1014.2
2020-01-13T04:53:00+09:00,1.3,���쐼,3.4,���k��,1,94.7,0,0,0,0,0,0,999.7,1014.2
2020-01-13T04:54:00+09:00,1.3,���쐼,3.4,���k��,1.1,94.7,0,0,0,0,0,0,999.6,1014.1
2020-01-13T04:55:00+09:00,1.3,���쐼,3.4,���k��,1.1,94.9,0,0,0,0,0,0,999.6,1014.1
2020-01-13T04:56:00+09:00,1.2,�쐼,3.4,���k��,1.1,94.9,0,0,0,0,0,0,999.7,1014.2
2020-01-13T04:57:00+09:00,0.9,�쐼,3.1,��,1.2,95,0,0,0,0,0,0,999.7,1014.2
2020-01-13T04:58:00+09:00,0.9,��쐼,3.1,��,1.3,95.4,0,0,0,0,0,0,999.8,1014.3
2020-01-13T04:59:00+09:00,1,�쐼,3.1,��,1.2,95.3,0,0,0,0,0,0,999.8,1014.3
2020-01-13T05:00:00+09:00,1.1,���쐼,3.1,��,1,94.7,0,0,0,0,0,0,999.8,1014.3
2020-01-13T05:01:00+09:00,1.2,���쐼,3.1,��,1,94.4,0,0,0,0,0,0,999.8,1014.3
2020-01-13T05:02:00+09:00,1.1,���쐼,2.9,��,1,94.5,0,0,0,0,0,0,999.7,1014.2
2020-01-13T05:03:00+09:00,1,���쐼,2.9,��,1.2,95,0,0,0,0,0,0,999.7,1014.2
2020-01-13T05:04:00+09:00,1,��,2.9,��,1.3,95.2,0,0,0,0,0,0,999.7,1014.2
2020-01-13T05:05:00+09:00,1.1,��,2.9,��,1.3,95.2,0,0,0,0,0,0,999.7,1014.2
2020-01-13T05:06:00+09:00,1.1,��,2.9,��,1.3,95.2,0,0,0,0,0,0,999.6,1014.1
2020-01-13T05:07:00+09:00,1.1,��,2.9,��,1.2,94.8,0,0,0,0,0,0,999.6,1014.1
2020-01-13T05:08:00+09:00,1.1,��,2.9,��,1,94.3,0,0,0,0,0,0,999.6,1014.1
2020-01-13T05:09:00+09:00,0.9,���쐼,2.9,��,1.1,93.8,0,0,0,0,0,0,999.6,1014.1
2020-01-13T05:10:00+09:00,0.7,���쐼,2.5,��,1.2,94.2,0,0,0,0,0,0,999.6,1014.1
2020-01-13T05:11:00+09:00,0.6,���쐼,2.1,��,1.5,94.7,0,0,0,0,0,0,999.7,1014.2
2020-01-13T05:12:00+09:00,0.5,���쐼,2,��,1.4,94.9,0,0,0,0,0,0,999.8,1014.3